"TOA5","AWS1","CR1000","7964","CR1000.Std.14","CPU:AWS1_114.CR1","64363","TBL110"
"TIMESTAMP","RECORD","Wind_spd_WVc(1)","Wind_spd_WVc(2)","Air_Temp_Avg","Humidity_Avg","SW_upper_Wm2_Avg","Rain_Tot","Press_Avg","Issui_Tot","Depth_cm","SR50A_Raw","Quality","Ground_Temp_Avg(1)","Ground_Temp_Avg(2)","SW_lower_Wm2_Avg","Albedo_Avg","SWC_per(1)","SWC_per(2)","Period(1)","Period(2)"
"TS","RN","","","","","","","","","","","","","","","","","","",""
"","","WVc","WVc","Avg","Avg","Avg","Tot","Avg","Tot","Smp","Smp","Smp","Avg","Avg","Avg","Avg","Smp","Smp","Smp","Smp"
"2016-07-01 00:00:00",242269,0.324,168,14.05,100,0,0,867.6235,0,19.86,2.907,270,18.47,17.79,0.4547449,0,50.28,57.62,33.37,35.13
"2016-07-01 00:10:00",242270,0.307,167,14.14,100,0,0,867.4255,0,20.06,2.905,271,18.38,17.79,0.4547449,0,50.33,57.62,33.38,35.13
"2016-07-01 00:20:00",242271,0.202,171.1,14.34,100,0,0,867.4066,0,-20.96,3.304,192,18.36,17.79,0.6480115,0,50.28,57.62,33.37,35.13
"2016-07-01 00:30:00",242272,0.085,167,14.26,100,0,0,867.2423,0,-19.45,3.289,172,18.38,17.78,0.4888508,0,50.28,57.62,33.37,35.13
"2016-07-01 00:40:00",242273,0.139,189.6,14.43,100,0,0,867.1539,0,-18.91,3.283,179,18.32,17.78,0.7238023,0,50.28,57.62,33.37,35.13
"2016-07-01 00:50:00",242274,0.272,203.3,14.6,100,0,0,867.2086,0,6.468,3.035,282,18.28,17.77,0.7806454,0,50.28,57.56,33.37,35.12
"2016-07-01 01:00:00",242275,0.065,203.4,14.66,100,0,0,867.3034,0,15.72,2.946,323,18.3,17.77,0.5873788,0,50.33,57.62,33.38,35.13
"2016-07-01 01:10:00",242276,0.352,194,14.1,100,0,0,867.1539,0,18.71,2.919,385,18.27,17.79,0.05305357,0,50.28,57.56,33.37,35.12
"2016-07-01 01:20:00",242277,0.395,190.6,13.88,100,0,0,867.1644,0,13.62,2.97,308,18.25,17.8,0.3448482,0,50.28,57.62,33.37,35.13
"2016-07-01 01:30:00",242278,0.495,189.2,13.71,100,0,0,867.1539,0,13.98,2.967,295,18.26,17.8,0.3562168,0,50.28,57.56,33.37,35.12
"2016-07-01 01:40:00",242279,0.446,193,13.71,100,0,0,867.139,0,-20.4,3.302,188,18.18,17.8,0.4509554,0,50.28,57.56,33.37,35.12
"2016-07-01 01:50:00",242280,0.41,188.8,13.78,100,0,0,867.1475,0,22.58,2.882,248,18.14,17.8,0.5835893,0,50.33,57.56,33.38,35.12
"2016-07-01 02:00:00",242281,0.374,189,13.88,100,0,0,867.019,0,10.41,3,345,18.11,17.8,0.5191671,0,50.28,57.51,33.37,35.1
"2016-07-01 02:10:00",242282,0.305,189.7,14.02,100,0,0,866.9622,0,10.43,3,372,18.14,17.8,0.7465395,0,50.28,57.56,33.37,35.12
"2016-07-01 02:20:00",242283,0.132,189.7,14.09,100,0,0,867.2655,0,6.956,3.033,332,18.07,17.8,0.5835893,0,50.28,57.56,33.37,35.12
"2016-07-01 02:30:00",242284,0.113,189.4,13.87,100,0,0,867.3876,0,-20.09,3.299,194,18.07,17.8,0.462324,0,50.28,57.56,33.37,35.12
"2016-07-01 02:40:00",242285,0.299,194.7,13.74,100,0,0,867.3729,0,14.1,2.966,358,18.05,17.8,0.4661135,0,50.28,57.51,33.37,35.1
"2016-07-01 02:50:00",242286,0.336,196.1,13.59,100,0,0,867.4045,0,15.92,2.948,366,17.99,17.81,0.6214847,0,50.28,57.51,33.37,35.1
"2016-07-01 03:00:00",242287,0.237,198.9,13.57,100,0,0,867.4086,0,17.34,2.934,367,17.92,17.82,0.5608521,0,50.28,57.51,33.37,35.1
"2016-07-01 03:10:00",242288,0.18,195.9,13.57,100,0,0,867.4066,0,6.094,3.046,309,17.95,17.82,0.6290638,0,50.28,57.51,33.37,35.1
"2016-07-01 03:20:00",242289,0.31,197.2,13.47,100,0,0,867.4066,0,5.937,3.045,271,17.96,17.76,0.6593801,0,50.28,57.51,33.37,35.1
"2016-07-01 03:30:00",242290,0.145,198.1,13.73,100,0,0,867.6257,0,-21.14,3.31,203,17.93,17.74,0.7465395,0,50.28,57.51,33.37,35.1
"2016-07-01 03:40:00",242291,0.441,194.1,13.57,100,0,0,867.6593,0,-21.32,3.312,181,17.93,17.69,0.5456939,0,50.28,57.51,33.37,35.1
"2016-07-01 03:50:00",242292,0.501,188.7,13.62,100,0,0,867.653,0,19.92,2.909,264,17.89,17.67,0.5229567,0,50.22,57.51,33.35,35.1
"2016-07-01 04:00:00",242293,0.12,199.7,13.91,100,0,0,867.7794,0,-23.22,3.327,206,17.82,17.67,1.303602,0,50.28,57.45,33.37,35.09
"2016-07-01 04:10:00",242294,0.029,213.9,13.91,100,0,0,867.9163,0,-24.42,3.34,229,17.81,17.67,0.784435,0,50.28,57.45,33.37,35.09
"2016-07-01 04:20:00",242295,0.108,212.6,13.86,100,0,0,868.0532,0,18.99,2.917,241,17.78,17.68,0.8223304,0,50.28,57.45,33.37,35.09
"2016-07-01 04:30:00",242296,0.334,50.07,14.1,100,0,0,868.1649,0,17.92,2.925,308,17.79,17.69,1.174758,0,50.22,57.45,33.35,35.09
"2016-07-01 04:40:00",242297,0.555,70.8,14.35,100,0.1886536,0,868.1649,0,17.98,2.924,316,17.7,17.69,1.000439,0.493,50.22,57.45,33.35,35.09
"2016-07-01 04:50:00",242298,0.757,62.92,14.75,97.8,3.556906,0,868.129,0,15.65,2.944,284,17.67,17.7,1.728031,0.54,50.22,57.45,33.35,35.09
"2016-07-01 05:00:00",242299,0.484,44.9,15.32,96.7,8.308619,0,868.1543,0,14.93,2.947,297,17.7,17.71,2.971,0.36,50.22,57.45,33.35,35.09
"2016-07-01 05:10:00",242300,0.695,91.2,15.75,91.3,15.4185,0,867.9332,0,-0.487,3.096,299,17.68,17.71,3.888069,0.255,50.22,57.45,33.35,35.09
"2016-07-01 05:20:00",242301,0.649,25.97,16.2,85.7,19.12476,0,867.9016,0,6.433,3.026,289,17.63,17.71,4.562607,0.239,50.22,57.39,33.35,35.07
"2016-07-01 05:30:00",242302,0.249,86,15.77,88.4,20.58682,0,867.6593,0,23.24,2.871,280,17.58,17.71,4.304918,0.211,50.22,57.39,33.35,35.07
"2016-07-01 05:40:00",242303,0.114,109.4,14.63,100,27.88143,0,867.653,0,23.93,2.867,286,17.6,17.71,4.759664,0.171,50.22,57.39,33.35,35.07
"2016-07-01 05:50:00",242304,0.243,180.2,14.25,100,53.83702,0,867.6593,0,23.41,2.871,281,17.61,17.73,12.56991,0.224,50.28,57.39,33.37,35.07
"2016-07-01 06:00:00",242305,0.205,142.4,14.8,100,89.00913,0,867.6825,0,-16.6,3.257,170,17.55,17.71,19.90646,0.243,50.22,57.39,33.35,35.07
"2016-07-01 06:10:00",242306,0.103,49.23,15.48,96.7,137.4381,0,867.9121,0,23.28,2.866,356,17.55,17.69,28.75504,0.225,50.22,57.39,33.35,35.07
"2016-07-01 06:20:00",242307,0.029,116.4,15.52,98.8,57.28388,0,867.95,0,20.77,2.892,300,17.54,17.7,29.11504,0.525,50.22,57.39,33.35,35.07
"2016-07-01 06:30:00",242308,0.181,119.4,15.53,100,81.2822,0,867.9104,0,-16.72,3.255,195,17.54,17.7,31.03255,0.389,50.22,57.39,33.35,35.07
"2016-07-01 06:40:00",242309,0.107,118.7,16.08,98,227.8336,0,867.9212,0,18.32,2.911,274,17.51,17.66,34.7229,0.161,50.22,57.33,33.35,35.06
"2016-07-01 06:50:00",242310,0.068,115.3,16.58,95.8,89.60327,0,868.0726,0,-22.93,3.31,197,17.48,17.63,34.12363,0.461,50.22,57.33,33.35,35.06
"2016-07-01 07:00:00",242311,0.687,9.21,16.84,88.9,83.53532,0,868.2677,0,-22.34,3.303,192,17.48,17.62,32.52834,0.411,50.28,57.33,33.37,35.06
"2016-07-01 07:10:00",242312,0.702,1.527,16.96,86.8,113.4965,0,868.3428,0,-14.65,3.228,191,17.44,17.61,33.14915,0.293,50.22,57.33,33.35,35.06
"2016-07-01 07:20:00",242313,0.225,1.483,16.92,88,155.0024,0,868.4262,0,-15.36,3.234,182,17.42,17.57,27.42974,0.185,50.22,57.33,33.35,35.06
"2016-07-01 07:30:00",242314,0.176,59.43,17.15,89.6,177.5574,0,868.5864,0,25.57,2.837,456,17.4,17.53,26.25353,0.148,50.28,57.33,33.37,35.06
"2016-07-01 07:40:00",242315,0.598,112.3,17.14,93.8,248.7576,0,868.4509,0,25.79,2.832,260,17.39,17.5,37.27679,0.153,50.22,57.27,33.35,35.05
"2016-07-01 07:50:00",242316,0.57,87.1,18.42,82.7,575.7757,0,868.3689,0,-17.61,3.247,192,17.36,17.47,53.36192,0.093,50.17,57.33,33.34,35.06
"2016-07-01 08:00:00",242317,0.462,83.2,18.88,76.86,613.2142,0,868.3257,0,18.06,2.9,250,17.36,17.5,69.79163,0.114,50.17,57.33,33.34,35.06
"2016-07-01 08:10:00",242318,0.362,50.96,19.35,72.35,652.3575,0,868.216,0,-19.16,3.257,188,17.29,17.48,85.48108,0.131,50.22,57.33,33.35,35.06
"2016-07-01 08:20:00",242319,0.56,24.59,19.64,69.35,678.8839,0,868.0707,0,18.77,2.89,282,17.27,17.45,95.50688,0.14,50.22,57.27,33.35,35.05
"2016-07-01 08:30:00",242320,0.706,15.49,19.59,70.82,728.2451,0,867.8455,0,21.21,2.866,268,17.27,17.46,108.1172,0.148,50.17,57.27,33.34,35.05
"2016-07-01 08:40:00",242321,0.557,356.5,19.73,75.37,768.2316,0,867.9907,0,19.84,2.879,256,17.27,17.45,116.2199,0.151,50.22,57.27,33.35,35.05
"2016-07-01 08:50:00",242322,0.75,5.94,19.8,76.52,802.3499,0,868.0686,0,19.15,2.885,234,17.27,17.38,122.2128,0.152,50.17,57.27,33.34,35.05
"2016-07-01 09:00:00",242323,0.462,2.726,20.23,77.51,832.5084,0,868.075,0,-22.12,3.282,181,17.27,17.34,125.554,0.151,50.17,57.27,33.34,35.05
"2016-07-01 09:10:00",242324,0.265,18.16,20.43,76.76,797.6193,0,867.9949,0,18.9,2.884,245,17.26,17.34,117.9397,0.145,50.22,57.27,33.35,35.05
"2016-07-01 09:20:00",242325,0.462,321.5,20.58,72.57,926.2491,0,867.9276,0,18.39,2.89,244,17.24,17.35,136.3165,0.147,50.17,57.27,33.34,35.05
"2016-07-01 09:30:00",242326,0.496,23.34,20.57,72.94,990.8528,0,867.9486,0,-18.84,3.247,189,17.27,17.35,146.9539,0.148,50.22,57.27,33.35,35.05
"2016-07-01 09:40:00",242327,0.422,90.1,21.03,70.14,975.2745,0,868.0539,0,19.19,2.877,238,17.29,17.33,143.821,0.147,50.17,57.27,33.34,35.05
"2016-07-01 09:50:00",242328,0.493,21.24,21.42,63.41,1021.542,0,867.9423,0,7.21,2.991,313,17.24,17.31,151.2687,0.148,50.17,57.27,33.34,35.05
"2016-07-01 10:00:00",242329,0.478,349,21.4,66.8,988.8019,0,868.0034,0,-19.97,3.255,197,17.26,17.32,146.5675,0.147,50.11,57.22,33.33,35.03
"2016-07-01 10:10:00",242330,0.493,1.993,21.5,64.12,1039.112,0,868.0729,0,-20.01,3.253,262,17.29,17.31,154.8789,0.149,50.11,57.22,33.33,35.03
"2016-07-01 10:20:00",242331,0.392,31.7,21.85,63.12,1038.476,0,868.0771,0,-32.79,3.376,228,17.31,17.28,153.9849,0.148,50.11,57.22,33.33,35.03
"2016-07-01 10:30:00",242332,0.353,277.7,21.94,59.13,1035.635,0,868.1339,0,318,0,0,17.28,17.27,153.7955,0.148,50.06,57.16,33.31,35.02
"2016-07-01 10:40:00",242333,0.264,137,22.56,64.04,1049.186,0,868.1445,0,7.317,2.986,259,17.33,17.27,156.3222,0.149,50.06,57.16,33.31,35.02
"2016-07-01 10:50:00",242334,0.449,158,22.27,66.2,1021.821,0,868.075,0,-35.08,3.395,249,17.37,17.26,156.9321,0.154,50.06,57.16,33.31,35.02
"2016-07-01 11:00:00",242335,0.337,37.17,22.46,65.47,1050.412,0,868.0729,0,5.099,3.006,254,17.43,17.28,157.5837,0.15,50.01,57.16,33.3,35.02
"2016-07-01 11:10:00",242336,0.323,323.7,22.46,63.29,1060.776,0,868.0729,0,19.38,2.872,337,17.49,17.27,156.8412,0.148,50.01,57.16,33.3,35.02
"2016-07-01 11:20:00",242337,0.529,358.9,22.45,61.52,1078.39,0,868.0729,0,-21.28,3.257,262,17.58,17.23,159.9703,0.148,50.01,57.16,33.3,35.02
"2016-07-01 11:30:00",242338,0.464,343.7,23.02,58.94,1089.34,0,868.0286,0,6.533,2.992,260,17.63,17.23,163.2055,0.15,49.95,57.1,33.28,35.01
"2016-07-01 11:40:00",242339,0.342,256.8,22.83,57.35,884.6573,0,867.9697,0,20.05,2.863,328,17.76,17.23,127.827,0.131,49.95,57.1,33.28,35.01
"2016-07-01 11:50:00",242340,0.292,275.8,23.01,54.98,1075.698,0,868.1486,0,18.87,2.872,306,17.86,17.2,167.5998,0.156,49.95,57.1,33.28,35.01
"2016-07-01 12:00:00",242341,0.386,125.5,23.51,55.57,1078.248,0,868.1086,0,-20.91,3.252,213,17.92,17.21,166.13,0.154,49.9,57.1,33.27,35.01
"2016-07-01 12:10:00",242342,0.64,91.2,23.39,54.47,764.0583,0,867.9128,0,-26.6,3.312,210,18.04,17.18,107.1659,0.128,49.9,57.04,33.27,34.99
"2016-07-01 12:20:00",242343,0.317,188.9,23.39,53.94,1088.841,0,868.0328,0,318,0,0,18.15,17.18,173.5739,0.159,49.84,57.04,33.26,34.99
"2016-07-01 12:30:00",242344,0.342,268.6,23.64,48.97,926.1745,0,867.9971,0,18.35,2.877,273,18.25,17.22,140.6843,0.145,49.84,57.04,33.26,34.99
"2016-07-01 12:40:00",242345,0.479,327.8,23.79,46.68,1061.688,0,867.9423,0,17.02,2.886,322,18.39,17.21,163.9404,0.154,49.79,56.98,33.24,34.98
"2016-07-01 12:50:00",242346,0.358,327.8,23.98,44.25,1045.552,0,867.8307,0,7.375,2.978,311,18.5,17.22,161.1674,0.154,49.79,56.98,33.24,34.98
"2016-07-01 13:00:00",242347,0.637,42.11,24.05,43.91,1052.75,0,867.6938,0,-24.69,3.284,212,18.61,17.2,162.2054,0.154,49.73,56.98,33.23,34.98
"2016-07-01 13:10:00",242348,0.74,26.66,24.41,45.55,1052.404,0,867.4769,0,11.73,2.935,305,18.71,17.18,162.6145,0.155,49.73,56.93,33.23,34.97
"2016-07-01 13:20:00",242349,0.193,325.6,24.61,47.06,1027.431,0,867.3022,0,18.65,2.867,342,18.82,17.17,158.2769,0.154,49.68,56.93,33.22,34.97
"2016-07-01 13:30:00",242350,0.509,167,24.81,45.88,1037.851,0,867.2664,0,-24,3.274,202,18.93,17.22,160.3567,0.155,49.68,56.93,33.22,34.97
"2016-07-01 13:40:00",242351,0.432,153.8,24.84,47.83,1078.024,0,867.2264,0,6.426,2.981,257,19.06,17.23,169.3841,0.157,49.62,56.87,33.2,34.95
"2016-07-01 13:50:00",242352,0.562,3.991,24.77,45.74,1063.519,0,867.2812,0,18.96,2.864,280,19.14,17.21,167.168,0.157,49.68,56.87,33.22,34.95
"2016-07-01 14:00:00",242353,0.415,117,24.88,46.8,1024.968,0,867.1653,0,15.93,2.889,375,19.23,17.19,160.1143,0.156,49.62,56.87,33.2,34.95
"2016-07-01 14:10:00",242354,0.346,192.7,25.11,47.72,710.9114,0,867.1275,0,11.46,2.938,356,19.33,17.18,99.14992,0.122,49.57,56.87,33.19,34.95
"2016-07-01 14:20:00",242355,0.261,150.6,23.57,53.47,329.1161,0,867.0749,0,-20.91,3.252,200,19.41,17.21,35.95809,0.098,49.57,56.81,33.19,34.94
"2016-07-01 14:30:00",242356,0.313,332.7,23.71,53.81,830.9133,0,867.0875,0,3.377,3.015,262,19.54,17.24,130.4712,0.153,49.51,56.81,33.18,34.94
"2016-07-01 14:40:00",242357,0.36,280.2,23.84,53.47,528.9384,0,867.0685,0,18.01,2.879,420,19.63,17.25,72.42759,0.125,49.46,56.87,33.16,34.95
"2016-07-01 14:50:00",242358,0.334,149,24.1,51.55,887.0893,0,867.0159,0,1.836,3.028,319,19.72,17.23,129.9105,0.146,49.51,56.81,33.18,34.94
"2016-07-01 15:00:00",242359,0.319,205.7,24.84,49.79,832.6577,0,866.8264,0,-1.656,3.061,211,19.79,17.21,107.2568,0.129,49.46,56.81,33.16,34.94
"2016-07-01 15:10:00",242360,0.315,18.71,24.36,53.04,729.6603,0,866.8096,0,0.189,3.046,228,19.89,17.25,79.89423,0.106,49.41,56.81,33.15,34.94
"2016-07-01 15:20:00",242361,0.163,236.7,24.63,53.07,796.7471,0,866.8054,0,6.098,2.985,297,19.96,17.28,71.39719,0.089,49.41,56.81,33.15,34.94
"2016-07-01 15:30:00",242362,0.109,204.9,24.65,52.6,665.8307,0,866.5863,0,-34.66,3.378,211,19.98,17.31,35.13982,0.052,49.41,56.75,33.15,34.93
"2016-07-01 15:40:00",242363,0.129,205,23.94,55.64,288.3886,0,866.5568,0,-23.29,3.273,189,20.06,17.32,26.08212,0.089,49.41,56.75,33.15,34.93
"2016-07-01 15:50:00",242364,0.244,258,23.88,56.06,257.2478,0,866.5568,0,-31.22,3.349,209,20.1,17.28,36.04143,0.152,49.41,56.75,33.15,34.93
"2016-07-01 16:00:00",242365,0.25,198.9,23.59,58.15,155.0048,0,866.5568,0,-22.68,3.269,205,20.18,17.35,25.32446,0.163,49.3,56.75,33.12,34.93
"2016-07-01 16:10:00",242366,0.351,212.3,23.15,60.4,133.9264,0,866.5568,0,-23.43,3.28,228,20.29,17.4,13.39908,0.118,49.3,56.7,33.12,34.91
"2016-07-01 16:20:00",242367,0.33,209.1,22.81,62.25,101.761,0,866.5821,0,17.38,2.888,260,20.29,17.4,16.77838,0.165,49.3,56.7,33.12,34.91
"2016-07-01 16:30:00",242368,0.307,227.5,22.82,65.4,95.40341,0,866.6727,0,17.3,2.889,268,20.35,17.43,15.27814,0.16,49.3,56.7,33.12,34.91
"2016-07-01 16:40:00",242369,0.321,206.4,22.48,66.2,89.57453,0,866.7127,0,18.16,2.883,243,20.42,17.54,12.96753,0.145,49.3,56.7,33.12,34.91
"2016-07-01 16:50:00",242370,0.141,325,22.38,67.19,119.5077,0,866.8096,0,19.01,2.875,245,20.47,17.54,16.22575,0.135,49.24,56.64,33.11,34.9
"2016-07-01 17:00:00",242371,0.102,51.3,22.37,68.09,167.2395,0,866.6727,0,18.42,2.88,251,20.52,17.55,24.85648,0.149,49.24,56.64,33.11,34.9
"2016-07-01 17:10:00",242372,0.28,291.4,21.97,70.91,164.6182,0,866.8453,0,18.74,2.88,248,20.56,17.61,25.76185,0.156,49.24,56.64,33.11,34.9
"2016-07-01 17:20:00",242373,0.142,277.7,21.69,74.87,73.01198,0,867.0643,0,18.86,2.88,262,20.6,17.61,7.857285,0.101,49.24,56.64,33.11,34.9
"2016-07-01 17:30:00",242374,0.104,54.49,21.44,77.24,66.91351,0,867.2138,0,18.82,2.881,253,20.64,17.7,7.145451,0.105,49.24,56.58,33.11,34.88
"2016-07-01 17:40:00",242375,0.068,294.1,21.17,79.46,69.09886,0,867.2348,0,19.25,2.879,251,20.64,17.7,8.051005,0.116,49.19,56.58,33.09,34.88
"2016-07-01 17:50:00",242376,0.028,212.5,21.15,79.42,91.90438,0,867.3148,0,19.03,2.879,252,20.63,17.67,13.0482,0.141,49.19,56.58,33.09,34.88
"2016-07-01 18:00:00",242377,0.042,164.9,21.38,78.15,91.49648,0,867.3148,0,19.05,2.879,259,20.62,17.67,12.7149,0.139,49.19,56.64,33.09,34.9
"2016-07-01 18:10:00",242378,0.006,7.904,21.15,79.32,39.18844,0,867.3191,0,18.91,2.882,238,20.62,17.78,3.625819,0.085,49.13,56.58,33.08,34.88
"2016-07-01 18:20:00",242379,0.181,66.48,20.8,81.6,18.61006,0,867.4474,0,18.93,2.884,232,20.65,17.81,0.655458,0.035,49.19,56.52,33.09,34.87
"2016-07-01 18:30:00",242380,0.108,64.42,20.5,83,14.36991,0,867.5674,0,18.87,2.885,237,20.66,17.79,0.8676144,0.06,49.13,56.52,33.08,34.87
"2016-07-01 18:40:00",242381,0.281,53.48,20.37,81.4,11.21447,0,867.5759,0,18.67,2.888,238,20.69,17.79,0.9320146,0.083,49.13,56.52,33.08,34.87
"2016-07-01 18:50:00",242382,0.217,63.78,20.21,81.7,12.16928,0,867.5991,0,18.82,2.887,227,20.69,17.89,1.496524,0.123,49.13,56.58,33.08,34.88
"2016-07-01 19:00:00",242383,0.248,42.17,20.16,80.1,6.377488,0,867.5674,0,18.65,2.889,263,20.7,17.91,0.8638302,0.13,49.08,56.58,33.07,34.88
"2016-07-01 19:10:00",242384,0.195,48.6,19.96,81.4,0.5540686,0,867.7486,0,18.26,2.894,229,20.71,17.92,0.02273304,0.009,49.13,56.58,33.08,34.88
"2016-07-01 19:20:00",242385,0.153,40.74,19.63,83.9,0,0,867.8876,0,18.49,2.894,259,20.71,17.95,0,0,49.13,56.52,33.08,34.87
"2016-07-01 19:30:00",242386,0.1,48.7,19.41,86.8,0,0,868.0455,0,18.74,2.892,296,20.64,18.04,0,0,49.13,56.52,33.08,34.87
"2016-07-01 19:40:00",242387,0.017,79.24,19.38,89.5,0,0,868.0729,0,18.52,2.894,294,20.6,18.05,0,0,49.13,56.52,33.08,34.87
"2016-07-01 19:50:00",242388,0.001,50.7,19.42,91.3,0,0,868.306,0,18.27,2.896,274,20.64,18.03,0.1932485,0,49.08,56.52,33.07,34.87
"2016-07-01 20:00:00",242389,0.259,93.3,19.35,92.7,0,0,868.4145,0,18.5,2.894,241,20.64,18.09,0.1174666,0,49.08,56.52,33.07,34.87
"2016-07-01 20:10:00",242390,0.364,105.8,19.15,96.1,0,0,868.5891,0,18.74,2.894,278,20.6,18.18,0.01894625,0,49.08,56.52,33.07,34.87
"2016-07-01 20:20:00",242391,0.456,139.5,18.92,99.9,0,0,868.5774,0,19.22,2.89,301,20.57,18.18,0,0,49.08,56.46,33.07,34.86
"2016-07-01 20:30:00",242392,0.464,149.7,18.74,100,0,0,868.5871,0,18.35,2.899,272,20.57,18.14,0,0,49.08,56.46,33.07,34.86
"2016-07-01 20:40:00",242393,0.655,136.8,18.7,99.9,0,0,868.6211,0,18.56,2.897,265,20.59,18.17,0.06442069,0,49.08,56.46,33.07,34.86
"2016-07-01 20:50:00",242394,0.698,137.4,18.67,98.9,0,0,868.7784,0,18.66,2.896,246,20.57,18.22,0.14021,0,49.08,56.46,33.07,34.86
"2016-07-01 21:00:00",242395,0.68,153.7,18.71,96.5,0,0,868.8381,0,18.43,2.898,271,20.51,18.23,0.231157,0,49.03,56.46,33.05,34.86
"2016-07-01 21:10:00",242396,0.539,167.7,18.64,96.2,0,0,868.8495,0,18.44,2.899,252,20.5,18.26,0.09473607,0,49.08,56.46,33.07,34.86
"2016-07-01 21:20:00",242397,0.539,151.4,18.59,94.6,0,0,868.8457,0,18.84,2.896,373,20.55,18.23,0.1553686,0,49.08,56.41,33.07,34.84
"2016-07-01 21:30:00",242398,0.33,143.3,18.42,97.1,0,0,868.8571,0,18.46,2.899,273,20.42,18.26,0.0682115,0,49.03,56.46,33.05,34.86
"2016-07-01 21:40:00",242399,0.314,152.7,18.44,96.7,0,0,868.861,0,18.17,2.902,273,20.41,18.3,0.2046324,0,49.03,56.46,33.05,34.86
"2016-07-01 21:50:00",242400,0.072,87,18.22,98.8,0,0,868.8613,0,18.52,2.9,280,20.43,18.31,0.02652596,0,49.03,56.41,33.05,34.84
"2016-07-01 22:00:00",242401,0.096,295.9,18.26,98.6,0,0,868.9493,0,-21.14,3.284,216,20.34,18.34,0.2576836,0,49.08,56.41,33.07,34.84
"2016-07-01 22:10:00",242402,0.216,326.5,18.33,97.8,0,0,869.1142,0,18.05,2.903,278,20.32,18.35,0.5229528,0,49.03,56.41,33.05,34.84
"2016-07-01 22:20:00",242403,0.132,63.29,18.36,97.6,0,0,869.1304,0,18.82,2.897,284,20.34,18.33,0.3789531,0,49.03,56.41,33.05,34.84
"2016-07-01 22:30:00",242404,0.06,64.12,18.13,100,0,0,869.0833,0,18.41,2.901,283,20.27,18.37,0.2349514,0,49.03,56.41,33.05,34.84
"2016-07-01 22:40:00",242405,0.166,315.7,18.11,100,0,0,868.8697,0,-21.51,3.288,200,20.26,18.4,0.276636,0,49.03,56.41,33.05,34.84
"2016-07-01 22:50:00",242406,0.211,281.6,18.08,100,0,0,868.8316,0,19.02,2.896,368,20.31,18.42,0.2842118,0,49.03,56.35,33.05,34.83
"2016-07-01 23:00:00",242407,0.049,325.1,17.97,100,0,0,868.7861,0,18.6,2.9,284,20.23,18.46,0.1970522,0,49.03,56.35,33.05,34.83
"2016-07-01 23:10:00",242408,0.279,35.77,17.91,99.7,0,0,868.8711,0,18.38,2.903,263,20.18,18.49,0.3524192,0,49.03,56.35,33.05,34.83
"2016-07-01 23:20:00",242409,0.034,105.9,17.36,100,0,0,868.7667,0,18.64,2.904,256,20.21,18.49,0.01136841,0,49.03,56.35,33.05,34.83
"2016-07-01 23:30:00",242410,0.248,79.65,17.22,100,0,0,868.6495,0,18.71,2.902,248,20.09,18.48,0.1743183,0,49.03,56.35,33.05,34.83
"2016-07-01 23:40:00",242411,0.391,55.27,17.42,100,0,0,868.6358,0,18.87,2.9,251,20.09,18.46,0.3941087,0,48.97,56.35,33.04,34.83
"2016-07-01 23:50:00",242412,0.207,68.97,17.37,100,0,0,868.5263,0,18.59,2.904,254,20.14,18.45,0.3524229,0,49.03,56.29,33.05,34.82
